BAW2064 FIMP-EGKK

Flight info

Callsign BAW2064
Flight time N/A
Altitude 32000
Route NIBIS2A NIBIS UG661 DV UA401 IMKIX/N0490F340 UA401 NN UW325 SIPKI/N0489F330 UT325 EDAGA/N0485F350 UT325 POGBA/N0485F340 UT325 VOVIK/N0482F360 UT325 FL UM731 DIR UB730 DJA UM2 TARAT/N0469F380 UM2 CSO/N0462F370 DCT CIRTA/N0463F380 DCT BUKID DCT GARPU DCT PIGOS DCT BARSO DCT OKTET DCT GIPNO DCT BULOL DCT IDAVO DCT BAGBI DCT SIZZA DCT LAULY DCT BRY DCT CLM DCT KOPOR DCT KESAX DCT KUNAV KUNAV1G
Aircraft B772/H-SDE1E3FGHIJ3J5J6M1M2P2RWXYZ/LB1D1

Departure

Time N/A
Airport Sir Seewoosagur Ramgoolam International Airport (FIMP)

Arrival

Time 2026-05-06 08:27
Airport London Gatwick Airport (EGKK)
Time Latitude Longitude Altitude Speed Heading
2026-05-06 06:30 39.12210 7.04404 37981 ft 491 kts 358°
2026-05-06 06:30 39.15621 7.04666 37994 ft 492 kts 358°
2026-05-06 06:31 39.22457 7.05216 37983 ft 493 kts 359°
2026-05-06 06:31 39.29307 7.05798 37975 ft 493 kts 359°
2026-05-06 06:32 39.36161 7.06390 37980 ft 494 kts 359°
2026-05-06 06:32 39.43022 7.06983 37972 ft 494 kts 359°
2026-05-06 06:33 39.49889 7.07576 37982 ft 495 kts 359°
2026-05-06 06:33 39.56762 7.08170 37967 ft 495 kts 359°
2026-05-06 06:34 39.63633 7.08765 37972 ft 495 kts 359°
2026-05-06 06:34 39.70507 7.09362 37973 ft 495 kts 359°
2026-05-06 06:35 39.77380 7.09959 37969 ft 495 kts 359°
2026-05-06 06:35 39.84256 7.10559 37979 ft 495 kts 359°
2026-05-06 06:36 39.91132 7.11159 37965 ft 495 kts 359°
2026-05-06 06:36 39.98004 7.11760 37963 ft 495 kts 359°
2026-05-06 06:37 40.04869 7.12362 37977 ft 495 kts 359°
2026-05-06 06:37 40.11693 7.12961 37960 ft 495 kts 359°
2026-05-06 06:38 40.18564 7.13566 37963 ft 495 kts 359°
2026-05-06 06:38 40.25437 7.14172 37961 ft 495 kts 359°
2026-05-06 06:39 40.32317 7.14779 37963 ft 496 kts 359°
2026-05-06 06:39 40.39208 7.15389 37959 ft 496 kts 359°
2026-05-06 06:40 40.46103 7.16001 37957 ft 497 kts 359°
2026-05-06 06:40 40.52999 7.16615 37956 ft 497 kts 359°
2026-05-06 06:41 40.59900 7.17230 37956 ft 497 kts 360°
2026-05-06 06:41 40.66797 7.17845 37956 ft 497 kts 360°
2026-05-06 06:42 40.73692 7.18462 37955 ft 497 kts 360°
2026-05-06 06:42 40.80605 7.19082 37953 ft 498 kts 360°
2026-05-06 06:43 40.87526 7.19704 37954 ft 499 kts 360°
2026-05-06 06:43 40.94452 7.20232 37956 ft 499 kts 358°
2026-05-06 06:44 41.01396 7.20563 37953 ft 499 kts 358°
2026-05-06 06:44 41.08343 7.20886 37946 ft 500 kts 358°
2026-05-06 06:45 41.15300 7.21242 37954 ft 500 kts 358°
2026-05-06 06:45 41.22257 7.21612 37943 ft 500 kts 358°
2026-05-06 06:46 41.29209 7.21983 37940 ft 500 kts 358°
2026-05-06 06:46 41.34987 7.22291 37970 ft 500 kts 358°
2026-05-06 06:47 41.41938 7.22660 37946 ft 500 kts 358°
2026-05-06 06:47 41.48890 7.23031 37943 ft 500 kts 358°
2026-05-06 06:48 41.55841 7.23402 37955 ft 500 kts 357°
2026-05-06 06:48 41.62795 7.23777 37937 ft 500 kts 357°
2026-05-06 06:49 41.69757 7.24215 37933 ft 501 kts 358°
2026-05-06 06:49 41.76714 7.24682 37949 ft 501 kts 358°
2026-05-06 06:50 41.83687 7.25144 37934 ft 502 kts 358°
2026-05-06 06:50 41.90666 7.25600 37928 ft 502 kts 358°
2026-05-06 06:51 41.97650 7.26056 37947 ft 503 kts 358°
2026-05-06 06:51 42.04608 7.26510 37929 ft 505 kts 358°
2026-05-06 06:52 42.11629 7.26970 37929 ft 506 kts 358°
2026-05-06 06:52 42.18665 7.27433 37933 ft 507 kts 358°
2026-05-06 06:53 42.25714 7.27897 37911 ft 507 kts 358°
2026-05-06 06:53 42.32769 7.28363 37902 ft 507 kts 358°
2026-05-06 06:54 42.39819 7.28830 37940 ft 507 kts 358°
2026-05-06 06:54 42.46877 7.29298 37909 ft 508 kts 358°
2026-05-06 06:55 42.53936 7.29768 37905 ft 508 kts 358°
2026-05-06 06:55 42.60990 7.30238 37897 ft 507 kts 358°
2026-05-06 06:56 42.68044 7.30709 37895 ft 507 kts 358°
2026-05-06 06:56 42.75096 7.31181 37897 ft 507 kts 358°
2026-05-06 06:57 42.82146 7.31653 37900 ft 507 kts 358°
2026-05-06 06:57 42.89155 7.32124 37889 ft 508 kts 358°
2026-05-06 06:58 42.96208 7.32599 37886 ft 508 kts 358°
2026-05-06 06:58 43.03267 7.33076 37891 ft 508 kts 358°
2026-05-06 06:59 43.10335 7.33554 37882 ft 509 kts 358°
2026-05-06 06:59 43.17408 7.34035 37878 ft 509 kts 358°
2026-05-06 07:00 43.24487 7.34516 37876 ft 510 kts 358°
2026-05-06 07:00 43.31574 7.34999 37871 ft 510 kts 358°
2026-05-06 07:01 43.38665 7.35484 37872 ft 510 kts 358°
2026-05-06 07:01 43.45764 7.35970 37867 ft 511 kts 358°
2026-05-06 07:02 43.52865 7.36457 37863 ft 511 kts 358°
2026-05-06 07:02 43.59911 7.36419 37896 ft 499 kts 344°
2026-05-06 07:03 43.66366 7.33436 37897 ft 483 kts 324°
2026-05-06 07:03 43.71917 7.28407 37889 ft 477 kts 319°
2026-05-06 07:04 43.77390 7.23251 37899 ft 481 kts 319°
2026-05-06 07:04 43.82964 7.18085 37879 ft 483 kts 320°
2026-05-06 07:05 43.88567 7.12929 37871 ft 483 kts 320°
2026-05-06 07:05 43.94167 7.07773 37876 ft 483 kts 319°
2026-05-06 07:06 43.99750 7.02612 37868 ft 481 kts 319°
2026-05-06 07:06 44.05319 6.97446 37880 ft 481 kts 320°
2026-05-06 07:07 44.10891 6.92271 37869 ft 482 kts 320°
2026-05-06 07:07 44.16467 6.87098 37871 ft 481 kts 320°
2026-05-06 07:08 44.22033 6.81912 37897 ft 482 kts 320°
2026-05-06 07:08 44.27604 6.76695 37889 ft 482 kts 320°
2026-05-06 07:09 44.33177 6.71463 37888 ft 482 kts 320°
2026-05-06 07:09 44.38744 6.66223 37904 ft 482 kts 320°
2026-05-06 07:10 44.44308 6.60972 37911 ft 483 kts 321°
2026-05-06 07:10 44.49891 6.55701 37906 ft 483 kts 321°
2026-05-06 07:11 44.55469 6.50426 37911 ft 485 kts 321°
2026-05-06 07:11 44.61058 6.45125 37917 ft 485 kts 321°
2026-05-06 07:12 44.66641 6.39811 37913 ft 484 kts 321°
2026-05-06 07:12 44.72225 6.34475 37909 ft 486 kts 321°
2026-05-06 07:13 44.77820 6.29120 37921 ft 487 kts 320°
2026-05-06 07:13 44.83419 6.23751 37901 ft 486 kts 321°
2026-05-06 07:14 44.89010 6.18377 37904 ft 486 kts 321°
2026-05-06 07:14 44.94587 6.12996 37887 ft 485 kts 321°
2026-05-06 07:15 45.00152 6.07619 37899 ft 486 kts 321°
2026-05-06 07:15 45.05739 6.02215 37877 ft 488 kts 321°
2026-05-06 07:16 45.11339 5.96779 37872 ft 489 kts 321°
2026-05-06 07:16 45.16908 5.91350 37870 ft 489 kts 321°
2026-05-06 07:17 45.22507 5.85886 37869 ft 488 kts 321°
2026-05-06 07:17 45.28109 5.80409 37873 ft 488 kts 321°
2026-05-06 07:18 45.33697 5.74930 37871 ft 489 kts 321°
2026-05-06 07:18 45.39282 5.69442 37886 ft 487 kts 321°
2026-05-06 07:19 45.44866 5.63933 37887 ft 489 kts 321°
2026-05-06 07:19 45.50467 5.58392 37878 ft 492 kts 321°
2026-05-06 07:20 45.56087 5.52828 37877 ft 493 kts 321°
2026-05-06 07:20 45.61860 5.47500 37881 ft 495 kts 324°
2026-05-06 07:21 45.67743 5.42385 37883 ft 495 kts 325°
2026-05-06 07:21 45.73593 5.37224 37864 ft 491 kts 324°
2026-05-06 07:22 45.79361 5.32054 37889 ft 488 kts 324°
2026-05-06 07:22 45.85067 5.26905 37881 ft 488 kts 324°
2026-05-06 07:23 45.90820 5.21707 37876 ft 488 kts 324°
2026-05-06 07:23 45.96568 5.16502 37880 ft 488 kts 324°
2026-05-06 07:24 46.02322 5.11283 37884 ft 490 kts 324°
2026-05-06 07:24 46.08348 5.06665 37862 ft 493 kts 334°
2026-05-06 07:25 46.14656 5.02776 37860 ft 493 kts 334°
2026-05-06 07:25 46.20946 4.98822 37865 ft 493 kts 333°
2026-05-06 07:26 46.27221 4.94803 37871 ft 493 kts 333°
2026-05-06 07:26 46.33498 4.90786 37858 ft 493 kts 334°
2026-05-06 07:27 46.39774 4.86757 37853 ft 494 kts 333°
2026-05-06 07:27 46.46052 4.82710 37871 ft 494 kts 333°
2026-05-06 07:28 46.52331 4.78649 37854 ft 494 kts 334°
2026-05-06 07:28 46.61743 4.72545 37847 ft 493 kts 334°
2026-05-06 07:29 46.68000 4.68472 37845 ft 493 kts 334°
2026-05-06 07:29 46.74253 4.64389 37843 ft 492 kts 334°
2026-05-06 07:30 46.80505 4.60298 37847 ft 493 kts 334°
2026-05-06 07:30 46.86770 4.56219 37846 ft 493 kts 334°
2026-05-06 07:31 46.93041 4.52153 37841 ft 493 kts 334°
2026-05-06 07:31 46.99308 4.48068 37828 ft 493 kts 334°
2026-05-06 07:32 47.05568 4.43971 37850 ft 492 kts 334°
2026-05-06 07:32 47.11814 4.39870 37837 ft 491 kts 334°
2026-05-06 07:33 47.18040 4.35770 37831 ft 490 kts 334°
2026-05-06 07:33 47.24218 4.31694 37846 ft 490 kts 334°
2026-05-06 07:34 47.30431 4.27582 37831 ft 490 kts 334°
2026-05-06 07:34 47.36640 4.23462 37829 ft 489 kts 334°
2026-05-06 07:35 47.42840 4.19336 37832 ft 489 kts 334°
2026-05-06 07:35 47.48032 4.15869 37843 ft 489 kts 334°
2026-05-06 07:36 47.54111 4.11806 37839 ft 489 kts 334°
2026-05-06 07:36 47.60315 4.07669 37827 ft 489 kts 334°
2026-05-06 07:37 47.66121 4.03796 37823 ft 489 kts 334°
2026-05-06 07:37 47.72217 3.99426 37827 ft 488 kts 330°
2026-05-06 07:38 47.78117 3.94441 37831 ft 487 kts 328°
2026-05-06 07:38 47.83977 3.89355 37828 ft 488 kts 328°
2026-05-06 07:39 47.89861 3.84310 37822 ft 488 kts 329°
2026-05-06 07:39 47.95755 3.79297 37829 ft 488 kts 329°
2026-05-06 07:40 48.01649 3.74286 37828 ft 487 kts 329°
2026-05-06 07:40 48.07535 3.69268 37830 ft 487 kts 329°
2026-05-06 07:41 48.13412 3.64239 37832 ft 487 kts 329°
2026-05-06 07:41 48.19285 3.59200 37833 ft 486 kts 329°
2026-05-06 07:42 48.25155 3.54149 37833 ft 487 kts 329°
2026-05-06 07:42 48.31025 3.49085 37832 ft 487 kts 329°
2026-05-06 07:43 48.36892 3.44010 37840 ft 486 kts 329°
2026-05-06 07:43 48.42758 3.38922 37849 ft 487 kts 329°
2026-05-06 07:44 48.48632 3.33814 37834 ft 488 kts 329°
2026-05-06 07:44 48.54510 3.28688 37853 ft 488 kts 329°
2026-05-06 07:45 48.60385 3.23552 37848 ft 488 kts 329°
2026-05-06 07:45 48.66259 3.18401 37849 ft 488 kts 329°
2026-05-06 07:46 48.72135 3.13236 37861 ft 489 kts 329°
2026-05-06 07:46 48.77982 3.08080 37854 ft 490 kts 329°
2026-05-06 07:47 48.83869 3.02876 37864 ft 489 kts 329°
2026-05-06 07:47 48.89749 2.97664 37863 ft 489 kts 329°
2026-05-06 07:48 48.95620 2.92444 37864 ft 488 kts 329°
2026-05-06 07:48 49.01480 2.87222 37862 ft 488 kts 328°
2026-05-06 07:49 49.07333 2.81991 37874 ft 487 kts 328°
2026-05-06 07:49 49.13164 2.76763 37873 ft 485 kts 328°
2026-05-06 07:50 49.18969 2.71546 37871 ft 484 kts 328°
2026-05-06 07:50 49.24767 2.66319 37875 ft 483 kts 328°
2026-05-06 07:51 49.30550 2.61090 37873 ft 483 kts 328°
2026-05-06 07:51 49.36327 2.55852 37866 ft 481 kts 328°
2026-05-06 07:52 49.42080 2.50618 37882 ft 480 kts 328°
2026-05-06 07:52 49.47824 2.45381 37877 ft 480 kts 328°
2026-05-06 07:53 49.53371 2.39695 37876 ft 479 kts 319°
2026-05-06 07:53 49.58424 2.32996 37891 ft 479 kts 317°
2026-05-06 07:54 49.63454 2.26213 37895 ft 481 kts 317°
2026-05-06 07:54 49.68527 2.19414 37665 ft 485 kts 318°
2026-05-06 07:55 49.71079 2.16005 37205 ft 484 kts 319°
2026-05-06 07:55 49.73609 2.12628 36758 ft 478 kts 318°
2026-05-06 07:55 49.76108 2.09287 36287 ft 472 kts 319°
2026-05-06 07:55 49.78576 2.05983 35845 ft 467 kts 319°
2026-05-06 07:56 49.81019 2.02708 35380 ft 462 kts 319°
2026-05-06 07:56 49.83438 1.99458 34908 ft 459 kts 319°
2026-05-06 07:56 49.85837 1.96230 34449 ft 455 kts 319°
2026-05-06 07:56 49.88217 1.93022 33983 ft 451 kts 320°
2026-05-06 07:57 49.90575 1.89840 33443 ft 448 kts 320°
2026-05-06 07:57 49.92917 1.86675 32921 ft 444 kts 320°
2026-05-06 07:57 49.95203 1.83581 32462 ft 440 kts 320°
2026-05-06 07:57 49.97496 1.80475 31999 ft 435 kts 320°
2026-05-06 07:58 49.99766 1.77395 31547 ft 431 kts 320°
2026-05-06 07:58 50.02012 1.74341 31075 ft 427 kts 320°
2026-05-06 07:58 50.04243 1.71306 30629 ft 424 kts 320°
2026-05-06 07:58 50.06454 1.68298 30189 ft 421 kts 320°
2026-05-06 07:59 50.08654 1.65308 29690 ft 418 kts 320°
2026-05-06 07:59 50.10847 1.62343 29199 ft 416 kts 320°
2026-05-06 07:59 50.13024 1.59403 28707 ft 413 kts 320°
2026-05-06 07:59 50.15186 1.56477 28221 ft 410 kts 320°
2026-05-06 08:00 50.17330 1.53568 27739 ft 407 kts 320°
2026-05-06 08:00 50.19459 1.50675 27267 ft 405 kts 319°
2026-05-06 08:00 50.21575 1.47794 26784 ft 402 kts 319°
2026-05-06 08:00 50.23675 1.44928 26320 ft 400 kts 319°
2026-05-06 08:01 50.25767 1.42070 25851 ft 398 kts 319°
2026-05-06 08:01 50.27845 1.39228 25396 ft 396 kts 319°
2026-05-06 08:01 50.29913 1.36395 24936 ft 394 kts 319°
2026-05-06 08:01 50.31973 1.33571 24472 ft 393 kts 319°
2026-05-06 08:02 50.34021 1.30758 24032 ft 391 kts 319°
2026-05-06 08:02 50.36062 1.27953 23586 ft 390 kts 319°
2026-05-06 08:02 50.38096 1.25154 23069 ft 388 kts 319°
2026-05-06 08:02 50.40118 1.22366 22575 ft 386 kts 319°
2026-05-06 08:03 50.42129 1.19590 22122 ft 383 kts 319°
2026-05-06 08:03 50.44120 1.16838 21675 ft 380 kts 319°
2026-05-06 08:03 50.46098 1.14100 21222 ft 378 kts 319°
2026-05-06 08:03 50.48061 1.11383 20787 ft 375 kts 319°
2026-05-06 08:04 50.50013 1.08680 20367 ft 373 kts 319°
2026-05-06 08:04 50.51943 1.05983 19938 ft 370 kts 318°
2026-05-06 08:04 50.53753 1.03113 19489 ft 369 kts 314°
2026-05-06 08:04 50.55479 1.00139 19072 ft 367 kts 314°
2026-05-06 08:05 50.57163 0.97198 18644 ft 366 kts 314°
2026-05-06 08:05 50.58872 0.94238 18205 ft 365 kts 314°
2026-05-06 08:05 50.60586 0.91299 17707 ft 364 kts 314°
2026-05-06 08:05 50.62296 0.88384 17243 ft 362 kts 314°
2026-05-06 08:06 50.64004 0.85482 16804 ft 360 kts 314°
2026-05-06 08:06 50.65704 0.82598 16364 ft 358 kts 313°
2026-05-06 08:06 50.67394 0.79724 15909 ft 357 kts 313°
2026-05-06 08:06 50.69011 0.76752 15417 ft 358 kts 309°
2026-05-06 08:07 50.70568 0.73691 14916 ft 358 kts 309°
2026-05-06 08:07 50.72117 0.70603 14410 ft 359 kts 308°
2026-05-06 08:07 50.73668 0.67515 13902 ft 355 kts 309°
2026-05-06 08:07 50.75177 0.64526 13355 ft 342 kts 309°
2026-05-06 08:08 50.76637 0.61645 12845 ft 329 kts 309°
2026-05-06 08:08 50.78042 0.58876 12386 ft 317 kts 309°
2026-05-06 08:08 50.79395 0.56211 11928 ft 306 kts 309°
2026-05-06 08:08 50.80707 0.53628 11509 ft 297 kts 309°
2026-05-06 08:09 50.82012 0.51060 11115 ft 302 kts 309°
2026-05-06 08:09 50.83322 0.48476 10727 ft 301 kts 309°
2026-05-06 08:09 50.84627 0.45899 10365 ft 299 kts 310°
2026-05-06 08:09 50.85912 0.43358 9928 ft 290 kts 310°
2026-05-06 08:10 50.87138 0.40929 9507 ft 277 kts 310°
2026-05-06 08:10 50.88318 0.38591 9043 ft 267 kts 310°
2026-05-06 08:10 50.89452 0.36339 8656 ft 257 kts 310°
2026-05-06 08:10 50.90568 0.34125 8295 ft 258 kts 310°
2026-05-06 08:11 50.91685 0.31906 7934 ft 258 kts 310°
2026-05-06 08:11 50.92794 0.29705 7600 ft 251 kts 310°
2026-05-06 08:11 50.93861 0.27586 7232 ft 241 kts 310°
2026-05-06 08:11 50.94847 0.25520 7048 ft 229 kts 301°
2026-05-06 08:12 50.95270 0.23122 7040 ft 228 kts 277°
2026-05-06 08:12 50.95346 0.20590 7032 ft 232 kts 276°
2026-05-06 08:12 50.95415 0.18031 7027 ft 233 kts 276°
2026-05-06 08:12 50.95483 0.15463 7018 ft 232 kts 276°
2026-05-06 08:13 50.95553 0.12906 7008 ft 232 kts 276°
2026-05-06 08:13 50.95621 0.10356 7008 ft 231 kts 276°
2026-05-06 08:13 50.95688 0.07811 7001 ft 231 kts 276°
2026-05-06 08:13 50.95754 0.05275 6982 ft 230 kts 276°
2026-05-06 08:14 50.95819 0.02742 6996 ft 230 kts 276°
2026-05-06 08:14 50.95883 0.00210 6995 ft 230 kts 276°
2026-05-06 08:14 50.95949 -0.02332 6966 ft 231 kts 276°
2026-05-06 08:14 50.96021 -0.04878 6978 ft 231 kts 276°
2026-05-06 08:15 50.96096 -0.07437 6974 ft 232 kts 276°
2026-05-06 08:15 50.96171 -0.10003 6981 ft 234 kts 276°
2026-05-06 08:15 50.96247 -0.12581 6981 ft 234 kts 276°
2026-05-06 08:15 50.96324 -0.15167 6979 ft 235 kts 276°
2026-05-06 08:16 50.96399 -0.17758 6969 ft 235 kts 276°
2026-05-06 08:16 50.96475 -0.20342 6965 ft 234 kts 276°
2026-05-06 08:16 50.96554 -0.22918 6969 ft 233 kts 276°
2026-05-06 08:16 50.96630 -0.25484 6968 ft 233 kts 276°
2026-05-06 08:17 50.96706 -0.28048 6962 ft 232 kts 276°
2026-05-06 08:17 50.96779 -0.30603 6969 ft 231 kts 276°
2026-05-06 08:17 50.96853 -0.33151 6969 ft 231 kts 276°
2026-05-06 08:17 50.96928 -0.35698 6936 ft 230 kts 276°
2026-05-06 08:18 50.96997 -0.38191 6675 ft 228 kts 276°
2026-05-06 08:18 50.97066 -0.40687 6224 ft 226 kts 276°
2026-05-06 08:18 50.97131 -0.43197 5722 ft 231 kts 276°
2026-05-06 08:18 50.97190 -0.45747 5432 ft 229 kts 276°
2026-05-06 08:19 50.97240 -0.48246 5001 ft 226 kts 276°
2026-05-06 08:19 50.97288 -0.50758 4465 ft 229 kts 276°
2026-05-06 08:19 50.97360 -0.53282 4015 ft 227 kts 284°
2026-05-06 08:19 50.97986 -0.55496 3630 ft 219 kts 317°
2026-05-06 08:20 50.99254 -0.56681 3345 ft 211 kts 351°
2026-05-06 08:20 51.00690 -0.56815 2988 ft 206 kts
2026-05-06 08:20 51.02118 -0.56834 2997 ft 207 kts
2026-05-06 08:20 51.03567 -0.56864 2998 ft 210 kts
2026-05-06 08:21 51.05037 -0.56894 2997 ft 211 kts
2026-05-06 08:21 51.06456 -0.56550 3004 ft 208 kts 26°
2026-05-06 08:21 51.07546 -0.55040 3027 ft 209 kts 50°
2026-05-06 08:21 51.08420 -0.53168 3013 ft 213 kts 51°
2026-05-06 08:22 51.09316 -0.51260 3000 ft 217 kts 51°
2026-05-06 08:22 51.09911 -0.49985 2996 ft 217 kts 51°
2026-05-06 08:22 51.10631 -0.48000 2985 ft 201 kts 67°
2026-05-06 08:22 51.11034 -0.45925 3002 ft 192 kts 70°
2026-05-06 08:23 51.11365 -0.43903 2996 ft 187 kts 72°
2026-05-06 08:23 51.11648 -0.41929 2965 ft 179 kts 73°
2026-05-06 08:23 51.11914 -0.40006 2741 ft 176 kts 73°
2026-05-06 08:23 51.12176 -0.38114 2498 ft 170 kts 73°
2026-05-06 08:24 51.12418 -0.36349 2238 ft 156 kts 73°
2026-05-06 08:24 51.12648 -0.34692 2039 ft 150 kts 73°
2026-05-06 08:24 51.12871 -0.33084 1842 ft 146 kts 73°
2026-05-06 08:24 51.13084 -0.31545 1630 ft 137 kts 73°
2026-05-06 08:25 51.13291 -0.30054 1458 ft 141 kts 75°
2026-05-06 08:25 51.13498 -0.28536 1256 ft 139 kts 71°
2026-05-06 08:25 51.13706 -0.27071 1035 ft 133 kts 72°
2026-05-06 08:25 51.13906 -0.25627 880 ft 135 kts 71°
2026-05-06 08:26 51.14113 -0.24121 680 ft 142 kts 72°
2026-05-06 08:26 51.14320 -0.22619 464 ft 135 kts 72°
2026-05-06 08:26 51.14524 -0.21127 304 ft 140 kts 72°
2026-05-06 08:26 51.14731 -0.19648 218 ft 127 kts 75°
2026-05-06 08:27 51.14896 -0.18432 214 ft 95 kts 78°
2026-05-06 08:27 51.15011 -0.17598 214 ft 59 kts 77°
2026-05-06 08:27 51.15059 -0.17247 211 ft 10 kts 78°
2026-05-06 08:27 51.15071 -0.17177 208 ft 6 kts 63°
2026-05-06 08:28 51.15104 -0.17147 219 ft 6 kts
2026-05-06 08:28 51.15143 -0.17150 208 ft 6 kts 353°
2026-05-06 08:28 51.15181 -0.17160 215 ft 6 kts 349°
2026-05-06 08:28 51.15219 -0.17172 216 ft 6 kts 348°
2026-05-06 08:29 51.15272 -0.17207 220 ft 9 kts 335°
2026-05-06 08:29 51.15333 -0.17237 215 ft 9 kts 347°
2026-05-06 08:29 51.15396 -0.17260 215 ft 9 kts 347°
2026-05-06 08:29 51.15459 -0.17282 213 ft 9 kts 347°
2026-05-06 08:30 51.15521 -0.17303 210 ft 9 kts 348°
2026-05-06 08:30 51.15579 -0.17313 217 ft 8 kts 15°
2026-05-06 08:30 51.15612 -0.17248 214 ft 8 kts 69°
2026-05-06 08:30 51.15625 -0.17165 214 ft 8 kts 77°
2026-05-06 08:31 51.15637 -0.17082 213 ft 8 kts 77°
2026-05-06 08:31 51.15649 -0.16998 218 ft 8 kts 77°
2026-05-06 08:31 51.15660 -0.16914 212 ft 8 kts 77°
2026-05-06 08:31 51.15670 -0.16844 214 ft 4 kts 77°
2026-05-06 08:32 51.15668 -0.16810 214 ft 3 kts 114°
2026-05-06 08:32 51.15649 -0.16792 220 ft 3 kts 160°
2026-05-06 08:32 51.15628 -0.16786 214 ft 3 kts 168°
2026-05-06 08:32 51.15614 -0.16781 215 ft 2 kts 167°
2026-05-06 08:33 51.15606 -0.16778 211 ft 0 kts 168°
2026-05-06 08:33 51.15605 -0.16778 211 ft 0 kts 168°